DW5621 Weather Reports


time (UTC)temp
F
wind
direction
speed
knots
gust
knots
rain 1hr
in
rain 24hr
in
rain mn
in
humidity
%
barometer
mb
20260506013636 50 7 1.7 6.1 0.00 0.00 0.00 77 1012.6
20260506012736 50 4 1.7 6.1 0.00 0.00 0.00 77 1012.6
20260506011836 50 6 0.9 6.1 0.00 0.00 0.00 76 1012.7
20260506010936 51 31 0.9 4.3 0.00 0.00 0.00 76 1012.7
20260506010036 51 43 0.9 3.5 0.00 0.00 0.00 75 1012.6
20260506005436 51 33 0.9 6.1 0.00 0.00 0.00 75 1012.5
20260506004557 51 39 1.7 7.0 0.00 0.00 0.00 75 1012.5
20260506003657 51 40 1.7 5.2 0.00 0.00 0.00 74 1012.7
20260506002736 51 23 0.9 5.2 0.00 0.00 0.00 74 1012.7
20260506001836 51 36 1.7 6.1 0.00 0.00 0.00 74 1012.8
20260506000936 51 38 1.7 8.7 0.00 0.00 0.00 73 1012.9
20260506000057 51 43 1.7 6.1 0.00 0.00 0.00 73 1012.9
20260505235436 51 39 1.7 6.1 0.00 0.00 0.00 73 1012.8
20260505234536 51 32 1.7 7.0 0.00 0.00 0.00 73 1012.8
20260505233636 51 30 1.7 8.7 0.00 0.00 0.00 73 1012.7
20260505232736 52 51 1.7 4.3 0.00 0.00 0.00 73 1012.9
20260505231836 52 22 1.7 12.2 0.00 0.00 0.00 72 1012.9
20260505230936 52 37 2.6 12.2 0.00 0.00 0.00 72 1012.9
20260505230037 52 21 3.5 11.3 0.00 0.00 0.00 72 1013.0
20260505225436 52 18 3.5 11.3 0.00 0.00 0.00 72 1012.9
20260505224536 52 18 2.6 12.2 0.00 0.00 0.00 72 1012.8
20260505223635 52 9 2.6 12.2 0.00 0.00 0.00 73 1012.9
20260505222736 53 19 3.5 14.8 0.00 0.00 0.00 74 1012.9
20260505221836 53 29 2.6 9.6 0.00 0.00 0.00 77 1012.9
20260505220936 53 41 1.7 6.1 0.00 0.00 0.00 77 1012.8
20260505220035 53 41 1.7 9.6 0.00 0.00 0.00 77 1012.7
20260505215435 53 75 0.9 5.2 0.00 0.00 0.00 78 1012.7
20260505214536 53 80 0.9 5.2 0.00 0.00 0.00 78 1012.6
20260505213636 54 112 0.9 10.4 0.00 0.00 0.00 77 1012.5
20260505212736 54 45 1.7 10.4 0.00 0.00 0.00 76 1012.6
20260505211836 54 39 1.7 8.7 0.00 0.00 0.00 75 1012.6
20260505210936 55 46 1.7 9.6 0.00 0.00 0.00 73 1012.7
20260505210036 55 44 1.7 9.6 0.00 0.00 0.00 71 1012.5
20260505205436 55 59 1.7 6.1 0.00 0.00 0.00 69 1012.7
20260505204536 55 85 0.9 4.3 0.00 0.00 0.00 66 1012.5
20260505203636 55 100 0.9 4.3 0.00 0.00 0.00 66 1012.4
20260505202736 55 90 0.9 4.3 0.00 0.00 0.00 65 1012.3
20260505201836 55 104 0.9 4.3 0.00 0.00 0.00 67 1012.3
20260505200957 56 128 0.9 5.2 0.00 0.00 0.00 68 1012.2
20260505200036 56 127 0.9 4.3 0.00 0.00 0.00 69 1012.1
20260505195436 56 146 1.7 5.2 0.00 0.00 0.00 69 1012.0
20260505194536 56 154 1.7 5.2 0.00 0.00 0.00 70 1011.8
20260505193635 56 150 0.9 6.1 0.00 0.00 0.00 70 1011.7
20260505192736 56 139 0.9 4.3 0.00 0.00 0.00 69 1011.5
20260505191835 56 129 0.9 4.3 0.00 0.00 0.00 68 1011.5
20260505190936 57 147 0.9 6.1 0.00 0.00 0.00 66 1011.5
20260505190036 57 136 1.7 6.1 0.00 0.00 0.00 64 1011.4
20260505185436 57 136 1.7 6.1 0.00 0.00 0.00 64 1011.3
20260505184536 57 148 0.9 8.7 0.00 0.00 0.00 63 1011.2
20260505183636 57 151 1.7 8.7 0.00 0.00 0.00 62 1011.1
20260505182757 57 138 0.9 5.2 0.00 0.00 0.00 62 1010.9
20260505181836 58 139 0.9 4.3 0.00 0.00 0.00 61 1010.9
20260505180957 58 126 0.9 4.3 0.00 0.00 0.00 61 1010.9
20260505180057 58 111 0.9 5.2 0.00 0.00 0.00 61 1011.0
20260505175435 58 119 1.7 7.0 0.00 0.00 0.00 61 1011.0
20260505174535 58 150 1.7 8.7 0.00 0.00 0.00 61 1010.9
20260505173657 58 145 1.7 8.7 0.00 0.00 0.00 60 1011.0
20260505172757 59 140 1.7 8.7 0.00 0.00 0.00 60 1011.0
20260505171857 59 145 1.7 8.7 0.00 0.00 0.00 59 1011.0
20260505170935 59 156 2.6 8.7 0.00 0.00 0.00 59 1011.1
20260505170035 59 162 1.7 7.0 0.00 0.00 0.00 58 1011.2
20260505165456 59 154 1.7 7.0 0.00 0.00 0.00 58 1011.3
20260505164535 59 145 1.7 7.0 0.00 0.00 0.00 58 1011.2
20260505163635 59 153 2.6 8.7 0.00 0.00 0.00 58 1011.1
20260505162735 60 154 2.6 9.6 0.00 0.00 0.00 56 1011.3
20260505161835 60 161 3.5 9.6 0.00 0.00 0.00 55 1011.2
20260505160935 60 160 3.5 9.6 0.00 0.00 0.00 53 1011.1
20260505152735 61 155 2.6 7.0 0.00 0.00 0.00 51 1011.2
20260505151835 62 107 1.7 7.0 0.00 0.00 0.00 51 1011.1
20260505150935 62 44 0.9 5.2 0.00 0.00 0.00 50 1011.1
20260505124535 62 15 1.7 9.6 0.00 0.00 0.00 52 1011.7
20260505123635 62 39 1.7 9.6 0.00 0.00 0.00 50 1011.7
20260505122735 62 33 1.7 9.6 0.00 0.00 0.00 50 1011.8
20260505121835 62 14 2.6 10.4 0.00 0.00 0.00 51 1011.8
20260505120935 62 15 1.7 10.4 0.00 0.00 0.00 49 1011.8
20260505120035 62 44 1.7 10.4 0.00 0.00 0.00 52 1011.8
20260505115435 62 53 1.7 9.6 0.00 0.00 0.00 52 1011.9
20260505114535 62 49 2.6 10.4 0.00 0.00 0.00 50 1011.9
20260505113635 62 36 2.6 10.4 0.00 0.00 0.00 50 1012.0
20260505112735 61 24 2.6 10.4 0.00 0.00 0.00 53 1011.9
20260505111835 61 7 1.7 10.4 0.00 0.00 0.00 55 1012.1
20260505110935 60 24 2.6 10.4 0.00 0.00 0.00 56 1012.0
20260505101835 61 37 1.7 8.7 0.00 0.00 0.00 58 1012.5
20260505100935 61 20 1.7 8.7 0.00 0.00 0.00 58 1012.5
20260505100035 61 42 2.6 7.0 0.00 0.00 0.00 60 1012.6
20260505095435 60 48 1.7 7.0 0.00 0.00 0.00 59 1012.8
20260505094535 59 54 1.7 11.3 0.00 0.00 0.00 61 1012.7
20260505093635 59 61 2.6 11.3 0.00 0.00 0.00 63 1012.7
20260505092735 58 36 1.7 11.3 0.00 0.00 0.00 64 1012.7
20260505091835 58 26 1.7 6.1 0.00 0.00 0.00 68 1012.9
20260505090935 57 356 1.7 7.0 0.00 0.00 0.00 70 1013.0
20260505090035 56 38 2.6 7.0 0.00 0.00 0.00 68 1012.9
20260505085435 56 34 1.7 7.0 0.00 0.00 0.00 69 1013.0
20260505084535 55 51 1.7 7.0 0.00 0.00 0.00 73 1013.0
20260505083656 55 40 1.7 6.1 0.00 0.00 0.00 74 1013.1
20260505082735 54 7 1.7 6.1 0.00 0.00 0.00 75 1013.1
20260505081835 54 359 1.7 7.0 0.00 0.00 0.00 76 1013.0
20260505080935 54 9 1.7 9.6 0.00 0.00 0.00 76 1013.0
20260505080035 54 35 1.7 7.0 0.00 0.00 0.00 77 1013.0
20260505075435 54 34 1.7 8.7 0.00 0.00 0.00 77 1012.9
20260505074535 53 15 1.7 7.0 0.00 0.00 0.00 78 1012.8
20260505073635 53 14 1.7 6.1 0.00 0.00 0.00 80 1012.8
20260505072735 53 9 1.7 5.2 0.00 0.00 0.00 81 1013.0
20260505071835 53 12 1.7 4.3 0.00 0.00 0.00 81 1013.1
20260505070956 53 25 1.7 7.0 0.00 0.00 0.00 81 1013.0
20260505070035 52 27 0.9 5.2 0.00 0.00 0.00 82 1013.1
20260505065435 52 27 0.9 5.2 0.00 0.00 0.00 82 1013.2
20260505064535 52 26 1.7 5.2 0.00 0.00 0.00 82 1013.2
20260505063635 52 26 1.7 4.3 0.00 0.00 0.00 82 1013.3
20260505062735 52 42 0.9 4.3 0.00 0.00 0.00 83 1013.3
20260505061856 52 39 0.9 4.3 0.00 0.00 0.00 84 1013.2
20260505060935 51 47 0.9 4.3 0.00 0.00 0.00 85 1013.1
20260505060056 51 27 0.9 4.3 0.00 0.00 0.00 85 1013.0
20260505055435 51 26 0.9 3.5 0.00 0.00 0.00 85 1013.1
20260505054535 51 41 0.0 1.7 0.00 0.00 0.00 85 1013.1
20260505053635 51 48 0.0 1.7 0.00 0.00 0.00 84 1013.1
20260505052734 51 48 0.0 1.7 0.00 0.00 0.00 84 1013.2
20260505051834 51 56 0.0 3.5 0.00 0.00 0.00 84 1013.2
20260505050934 51 61 0.0 4.3 0.00 0.00 0.00 84 1013.2
20260505040934 52 57 0.9 4.3 0.00 0.00 0.00 84 1013.2
20260505040034 52 56 0.9 4.3 0.00 0.00 0.00 84 1013.3
20260505035435 52 72 0.9 4.3 0.00 0.00 0.00 84 1013.2
20260505034534 52 77 0.9 4.3 0.00 0.00 0.00 84 1013.3
20260505033635 52 71 0.0 3.5 0.00 0.00 0.00 85 1013.3
20260505032734 52 76 0.0 4.3 0.00 0.00 0.00 85 1013.4
20260505031835 52 74 0.9 4.3 0.00 0.00 0.00 85 1013.4
20260505030934 52 83 0.0 3.5 0.00 0.00 0.00 86 1013.4
20260505030035 52 67 0.9 3.5 0.00 0.00 0.00 86 1013.3
20260505025434 52 43 0.0 1.7 0.00 0.00 0.00 86 1013.4
20260505024534 52 36 0.0 3.5 0.00 0.00 0.00 87 1013.5
20260505023655 52 98 0.0 3.5 0.00 0.00 0.00 87 1013.5
20260505022734 52 121 0.0 3.5 0.00 0.00 0.00 87 1013.5
20260505021834 52 132 0.0 3.5 0.00 0.00 0.00 87 1013.4
20260505020955 53 116 0.0 3.5 0.00 0.00 0.00 87 1013.4
20260505020034 53 74 0.9 3.5 0.00 0.00 0.00 87 1013.4
20260505015434 53 104 0.9 6.1 0.00 0.00 0.00 87 1013.3
20260505014534 53 145 0.9 5.2 0.00 0.00 0.00 87 1013.6